Tracking 23610 objects as of 19-Sep-2021
HD Live streaming from Space Station
objects crossing your sky now

DMSP 5D-2 F13 DEB

Track DMSP 5D-2 F13 DEB now!
10-day predictions


NORAD ID: 40603
Int'l Code: 1995-015FA
Perigee: 484.2 km
Apogee: 534.8 km
Inclination: 98.6 °
Period: 94.7 minutes
Semi major axis: 6880 km
RCS: Unknown
Launch date: March 24, 1995
Source: United States (US)
Launch site: AIR FORCE WESTERN TEST RANGE (AFWTR)

Note: This is SATELLITE DEBRIS
aabbcc
Your satellite tracking list
Your tracking list is empty




NASA's NSSDC Master Catalog

Two Line Element Set (TLE):
1 40603U 95015FA  21261.35338922  .00081957  00000-0  35808-2 0  9996
2 40603  98.6313 124.3927 0036757 317.2303  42.6070 15.21149785346779
Source of the keplerian elements: AFSPC